RH
29 26 24 22 20 19 18 18 18 19 19 19 19 18 18 19 19 19 20 21 21 21 20 20 19 18 17 16 14 12 10 9 7 5 4 3 3 3 2 2 2 2 2 2 2 3 2 3 2 2 3 2 2 3 3 3 3 3 3 3 3 3 3 4 4 4 4 4 5 6 7 8 8 9 13 16 18 19 21 23 34 53 70 83 95
25 23 21 20 18 17 17 17 18 18 18 18 17 17 18 18 18 18 18 19 19 18 18 17 16 16 16 15 14 12 11 10 9 7 5 4 3 3 2 2 2 2 2 2 2 2 2 2 3 2 3 2 2 2 2 2 3 3 3 3 3 3 3 4 4 4 4 4 5 6 6 7 8 8 10 13 17 18 19 20 24 38 56 71 85
22 21 19 17 16 16 17 18 18 18 17 17 16 17 17 17 18 18 17 17 17 17 16 16 15 15 14 14 13 12 11 10 9 7 5 4 3 3 2 2 2 2 2 2 2 2 2 2 2 2 2 2 2 2 2 2 2 2 2 3 3 3 3 3 4 4 5 4 4 5 6 6 7 8 9 10 14 16 18 19 19 27 43 59 72
21 18 17 16 16 17 18 18 17 17 17 17 17 17 18 18 18 17 17 16 15 15 14 13 13 12 11 11 10 9 9 8 7 5 4 4 3 3 3 2 2 2 2 2 2 2 2 2 2 2 2 2 3 2 2 2 2 2 2 2 2 3 3 3 4 4 4 5 4 4 5 6 6 7 8 9 11 13 16 18 18 21 32 46 60
19 17 16 16 17 18 18 18 17 17 18 18 18 18 18 17 17 16 15 14 12 12 11 10 9 8 8 7 7 6 6 6 5 5 4 4 3 3 3 3 2 2 2 2 2 2 2 2 2 2 2 2 3 2 2 2 2 2 2 2 2 2 2 3 3 4 4 4 5 4 4 6 6 6 7 8 9 11 14 17 18 19 25 36 49
18 17 17 18 19 19 19 19 18 18 18 18 17 17 16 15 14 13 11 10 9 8 7 6 6 5 5 5 5 4 5 5 5 4 4 3 3 3 3 3 2 2 2 2 2 3 2 2 2 2 2 2 2 2 2 2 2 2 2 2 2 2 2 2 2 3 4 4 5 5 4 5 6 6 6 7 9 10 12 14 17 18 21 29 40
19 20 20 21 21 20 20 20 19 18 18 17 16 15 14 13 11 10 9 8 7 6 5 4 4 4 4 4 4 4 4 4 4 4 4 3 3 3 3 3 2 2 2 2 2 2 2 3 2 2 2 2 2 2 2 2 2 2 2 2 2 2 2 2 2 2 3 4 4 5 5 4 5 6 6 6 7 9 11 12 15 16 18 24 33
21 22 22 22 21 20 20 19 19 18 17 16 15 13 12 11 9 9 7 6 6 5 4 4 3 4 4 3 4 4 4 4 4 4 3 3 3 3 2 2 2 2 2 2 2 2 2 3 2 2 2 2 2 2 2 2 2 2 2 2 2 3 2 2 3 3 2 3 4 4 4 5 5 5 6 6 7 8 10 11 13 14 16 21 28
24 24 23 23 22 21 21 20 19 18 17 15 14 12 11 10 8 8 6 6 5 4 4 4 4 3 3 3 3 3 3 3 3 3 3 3 3 2 2 2 2 2 2 2 2 2 2 2 2 2 2 2 3 2 2 2 2 2 2 2 2 2 3 2 2 3 3 3 3 4 4 4 5 5 5 6 6 7 8 10 12 12 14 17 24
27 26 25 24 23 22 21 20 19 17 16 15 13 12 11 10 9 8 7 6 5 4 4 4 3 3 3 3 3 3 3 3 3 3 3 3 3 2 2 3 2 2 2 2 2 2 2 2 2 3 2 2 2 2 3 2 2 2 2 2 3 2 2 3 3 3 3 3 3 3 4 4 4 5 6 5 6 6 7 8 10 12 13 14 20
29 27 26 25 24 23 21 20 19 18 17 15 14 13 12 10 9 8 7 6 5 4 4 3 3 3 3 3 3 3 3 3 3 3 2 2 2 2 2 3 3 3 2 2 2 2 2 2 2 2 2 3 2 2 3 2 2 3 2 2 3 3 3 3 3 3 3 3 3 3 3 4 4 5 5 6 5 6 7 8 8 11 13 13 16
28 27 27 26 24 23 21 19 18 17 16 15 14 13 11 10 8 7 6 5 5 4 4 4 3 3 3 3 3 3 3 2 2 2 2 2 2 2 2 3 3 3 2 2 2 2 2 2 2 3 2 2 3 2 2 3 2 2 3 2 2 2 3 3 3 3 3 3 4 3 3 4 4 4 5 5 6 6 6 7 8 9 11 13 14
28 27 26 25 23 21 20 18 18 17 16 15 13 11 10 8 7 6 5 5 5 4 4 4 4 4 3 3 3 3 3 2 2 2 2 2 2 2 2 3 3 3 2 2 2 2 2 2 2 3 2 2 3 2 2 2 3 2 2 2 2 2 3 3 3 3 3 3 4 4 4 4 4 4 4 5 6 6 6 6 7 8 9 11 13
26 25 24 23 21 20 19 17 16 15 14 12 11 10 9 7 6 6 5 4 4 4 4 4 4 3 3 3 3 3 3 3 2 2 2 2 2 2 2 3 3 3 2 2 2 2 2 2 2 2 2 2 2 2 2 2 2 3 3 2 3 2 3 3 3 3 3 3 3 4 4 4 4 4 4 4 5 6 6 6 6 8 9 9 11
24 22 22 21 20 18 17 15 14 13 12 11 10 8 7 6 6 5 4 4 4 4 4 3 3 3 3 3 3 3 3 3 2 2 2 2 2 2 2 3 3 3 3 2 2 2 2 2 3 2 2 3 2 2 3 3 2 3 3 3 3 3 3 3 3 3 3 3 4 4 4 4 4 4 4 4 5 5 6 6 6 7 8 9 10
21 20 20 19 18 16 15 13 12 11 10 9 8 7 6 5 5 5 4 4 4 4 4 3 3 3 3 3 3 3 3 3 2 2 2 2 2 2 2 3 3 3 3 2 2 2 2 2 3 3 2 2 3 2 2 2 3 3 3 3 3 3 3 3 3 3 3 3 3 4 4 4 4 4 4 4 4 5 5 6 7 7 8 9 10
19 18 17 16 15 13 12 11 10 9 8 7 6 6 6 5 5 5 4 4 4 4 3 3 3 3 3 3 3 3 3 3 2 2 2 2 2 2 2 3 3 3 3 3 2 2 2 2 2 3 3 2 2 3 2 3 3 3 3 3 3 3 3 3 3 3 3 3 3 3 4 4 4 4 5 4 4 4 5 6 7 7 8 8 9
16 15 15 13 12 11 10 9 8 7 6 6 5 5 5 5 5 5 4 4 4 3 3 3 3 3 3 3 3 3 3 3 2 2 2 2 2 2 3 3 3 3 3 3 3 2 2 3 2 2 3 3 2 2 2 3 3 3 3 3 3 3 3 3 3 3 3 3 3 3 4 4 4 4 5 5 4 4 4 5 6 7 8 8 9
14 13 12 11 10 9 8 7 6 6 5 5 5 5 5 5 5 4 4 4 3 3 3 3 3 3 3 3 3 3 3 3 3 2 2 2 2 2 3 3 3 3 3 2 3 3 2 2 3 3 3 2 3 3 2 3 3 3 3 3 3 3 3 3 3 3 3 3 3 4 4 4 4 4 4 5 5 4 4 5 5 6 7 8 9
12 11 10 9 8 7 6 6 5 5 5 4 4 4 4 4 4 4 4 3 3 3 3 3 3 3 3 3 3 3 3 3 3 3 2 2 2 2 3 3 3 3 3 3 3 3 3 3 2 3 3 3 3 3 2 3 3 3 3 3 3 3 3 3 4 3 3 4 3 4 4 4 4 4 4 5 5 5 5 4 5 5 6 7 8
11 10 8 7 6 6 5 5 5 4 4 4 4 4 4 4 4 3 3 3 3 3 3 3 3 3 3 3 3 3 3 3 3 3 2 2 3 2 3 3 3 3 3 3 3 3 3 3 2 2 3 3 3 3 2 3 3 3 3 3 3 3 3 3 4 4 3 4 4 4 4 4 4 4 4 4 4 5 5 5 5 5 5 6 8
9 8 7 5 5 5 5 5 4 4 4 4 4 4 3 3 3 3 3 3 3 3 3 3 3 3 3 3 3 3 3 3 3 3 3 2 3 3 3 3 3 3 3 3 3 3 2 3 3 2 3 3 3 3 3 3 3 3 4 4 3 3 3 3 4 4 4 4 4 4 4 4 4 4 4 4 4 4 5 5 5 5 5 5 6
7 6 5 5 5 5 5 5 4 4 4 4 3 3 3 3 3 3 3 3 3 3 3 3 3 3 3 3 3 3 3 3 3 3 3 3 3 3 3 3 3 3 3 3 3 3 3 3 3 2 3 3 3 3 3 3 3 3 3 4 3 3 3 4 4 4 4 4 4 4 4 4 4 4 4 4 4 4 4 5 5 6 6 5 6
5 5 5 5 5 5 4 4 4 4 3 3 3 3 3 3 3 3 3 3 3 3 3 3 3 3 3 3 3 3 3 3 3 3 3 3 3 3 3 3 3 3 3 3 3 3 3 3 3 3 3 3 3 3 3 3 3 4 4 4 4 4 4 4 4 4 4 4 4 4 4 4 4 4 4 4 4 4 4 5 5 5 6 6 6
5 5 5 5 5 5 4 4 4 3 3 3 3 3 3 3 3 3 3 3 3 3 3 3 3 3 3 3 3 3 3 3 3 3 3 3 3 3 3 3 3 3 3 3 3 3 3 3 3 3 3 3 3 3 3 3 3 3 4 4 4 4 4 4 4 4 4 4 4 4 4 4 4 4 4 4 4 5 5 5 5 5 5 6 6
5 5 5 4 4 4 4 3 4 3 3 3 3 3 3 3 3 3 3 3 3 3 3 3 3 3 3 3 3 3 3 3 3 3 3 3 3 3 3 3 3 3 3 3 3 3 3 3 3 3 3 3 3 3 3 3 3 3 4 4 4 4 4 4 4 4 4 4 5 4 4 4 4 4 4 4 4 4 5 5 5 5 5 5 6
5 5 4 4 4 4 3 4 4 3 3 3 3 3 3 3 3 3 3 3 3 3 3 3 3 3 3 3 3 3 3 3 3 3 3 3 3 3 3 3 3 3 3 3 3 3 3 3 3 3 3 3 3 3 3 3 3 4 4 4 4 4 4 4 4 4 4 4 5 5 5 5 5 4 4 4 4 4 5 5 5 5 5 5 6
4 4 4 4 4 3 4 4 3 3 3 3 3 3 3 3 3 3 3 3 3 3 3 3 3 3 3 3 3 3 3 3 3 3 3 3 3 3 3 3 3 3 3 3 3 3 3 3 3 3 3 3 3 3 3 3 4 4 4 4 5 5 5 5 4 4 4 4 4 5 5 5 5 4 4 4 4 4 4 5 5 5 5 5 5
4 4 4 4 4 4 4 4 3 3 3 3 3 3 3 3 3 3 3 3 3 3 3 3 3 3 3 3 3 3 3 3 3 3 3 3 3 3 3 3 3 3 3 3 3 3 3 3 3 3 3 3 3 3 4 4 4 4 4 4 4 4 5 5 4 4 4 4 4 4 5 5 5 5 5 4 4 5 4 5 5 5 5 5 5
4 4 4 3 4 4 3 3 3 3 3 3 3 3 3 3 3 3 3 3 3 3 3 3 3 3 3 3 3 3 3 3 3 3 3 3 3 3 3 3 4 4 4 3 3 3 3 3 3 3 3 3 3 4 4 4 4 4 4 4 4 5 5 5 5 4 4 4 4 4 5 5 5 5 5 5 5 5 5 5 5 4 5 5 5
4 4 4 4 4 3 3 3 3 3 3 3 3 3 3 3 3 3 4 3 3 3 3 3 3 3 3 3 3 3 3 3 3 3 3 3 3 3 3 4 4 4 4 4 3 3 3 3 3 3 3 3 4 4 4 4 4 4 4 5 5 5 5 5 5 5 4 4 4 4 4 5 5 5 5 5 4 5 4 5 5 5 5 5 5
3 3 4 3 3 3 4 3 3 3 3 3 3 3 3 3 3 3 3 3 3 3 3 3 3 3 3 3 3 3 3 3 3 4 4 3 3 3 3 4 4 4 4 4 3 3 3 3 3 3 3 4 4 4 4 4 4 4 5 5 5 5 5 5 4 4 4 4 4 4 4 5 4 4 5 4 4 5 4 4 5 5 5 5 5
4 4 3 3 3 3 3 3 3 3 3 3 3 3 3 3 3 3 3 4 4 3 3 3 3 3 3 3 3 3 3 3 4 4 4 4 4 3 3 3 4 4 4 4 4 3 3 3 3 3 4 4 4 4 4 4 5 5 5 5 5 4 5 5 4 4 4 4 4 4 4 4 4 4 5 5 4 4 4 4 5 5 5 5 5
3 3 3 3 4 3 3 3 3 3 3 3 3 3 3 3 3 3 3 3 4 4 3 3 3 3 3 3 3 3 3 4 4 4 4 4 4 3 4 4 4 4 4 4 4 4 3 4 4 4 4 4 4 4 5 4 5 5 5 5 5 4 4 5 5 5 5 4 5 5 4 5 5 5 4 5 5 5 4 4 5 5 5 5 5
3 3 3 3 3 3 3 3 3 3 3 3 3 3 3 3 3 3 3 3 4 4 4 4 3 3 3 3 3 3 3 4 4 4 4 4 4 4 4 4 4 4 4 4 4 4 4 4 4 4 4 4 4 5 5 5 5 5 5 5 5 5 5 5 5 5 5 5 5 5 5 5 5 5 5 5 5 5 5 5 5 5 5 5 5
3 3 3 3 3 4 3 3 4 4 3 3 3 3 3 3 4 4 4 4 4 4 4 4 4 3 3 3 3 4 4 4 4 4 4 4 4 4 4 4 4 4 4 4 4 4 4 4 4 4 4 5 5 5 5 5 5 5 5 5 5 5 5 5 5 5 5 5 4 4 5 5 5 5 5 5 5 5 5 5 5 5 5 5 5
3 3 3 3 3 4 3 4 4 4 4 4 4 4 4 4 4 4 4 4 4 4 4 4 4 4 4 4 4 4 4 4 4 4 5 5 5 4 4 4 4 4 4 4 4 4 4 4 4 5 5 5 5 5 5 5 5 5 5 5 5 5 5 5 5 5 5 5 5 5 5 5 5 5 5 5 5 5 5 5 6 6 5 5 5
3 3 3 3 3 3 4 4 4 4 4 4 4 4 4 4 4 4 4 4 4 4 4 4 4 4 4 4 4 4 4 4 4 5 5 5 5 5 4 4 4 4 4 4 4 4 4 4 5 5 5 5 5 5 5 5 5 5 5 5 5 5 5 5 5 5 5 5 5 5 5 5 5 5 5 5 5 5 5 5 6 6 6 6 5
4 4 4 4 4 4 4 4 4 4 4 4 4 4 4 4 4 4 4 4 4 4 4 4 5 4 4 4 4 4 5 5 5 5 5 5 5 5 4 4 5 5 4 4 4 5 5 5 5 5 5 5 5 5 5 5 5 5 5 5 5 6 6 6 5 5 5 5 5 5 5 5 5 5 5 5 5 6 6 6 6 6 6 6 6
4 4 4 4 4 4 4 3 4 4 4 4 4 4 4 4 4 4 4 4 4 4 4 4 4 4 4 4 4 4 5 5 5 5 5 5 5 5 5 4 5 5 5 5 5 5 5 5 5 5 5 5 5 5 5 5 5 5 5 5 6 6 6 6 6 6 6 6 5 5 5 5 5 5 6 6 6 6 6 6 6 6 6 6 6
4 4 4 4 4 4 4 3 3 4 3 4 4 4 4 4 4 3 4 4 4 4 4 4 4 4 4 4 4 5 5 5 5 6 6 6 5 5 5 5 5 5 5 5 5 5 5 6 5 5 5 5 6 6 6 6 6 6 6 6 6 6 6 6 6 6 6 6 6 6 6 6 6 6 6 6 7 7 7 6 6 6 6 6 6
4 3 3 3 3 3 3 3 3 3 3 4 4 3 4 4 4 4 4 3 3 4 4 3 4 4 4 4 4 5 5 5 5 6 6 6 6 6 5 5 5 5 5 6 6 6 6 6 6 6 6 6 6 6 6 6 6 6 6 6 6 6 6 7 7 7 6 6 6 6 6 6 6 7 7 7 7 7 7 7 7 7 7 6 6
4 3 3 3 3 3 3 3 3 3 3 3 3 3 3 3 3 4 4 3 4 4 3 3 4 4 4 4 4 4 5 5 5 5 6 6 6 6 6 5 5 5 6 6 6 6 6 6 6 6 6 6 6 6 6 7 7 6 6 7 6 6 6 7 7 7 7 7 7 7 7 7 7 6 6 7 7 7 7 7 7 7 6 7 7
3 3 3 3 3 3 3 3 3 3 3 3 3 3 3 3 3 4 3 4 4 3 3 4 4 3 4 4 4 4 5 5 5 5 6 6 6 6 6 6 5 6 6 6 7 7 6 6 6 6 7 7 7 7 7 7 7 7 7 7 7 7 7 7 7 8 8 8 8 8 7 7 7 7 6 6 6 7 7 7 7 7 7 7 7
3 3 3 3 3 3 3 3 3 3 3 3 3 3 3 3 4 4 4 4 4 4 4 3 3 4 4 4 4 4 5 4 5 5 6 6 6 6 6 6 6 6 6 7 7 7 7 7 6 7 7 7 7 7 7 7 7 7 7 7 7 8 8 7 7 8 8 8 8 8 7 7 7 6 6 6 6 6 7 7 7 7 7 8 7
3 3 3 3 3 3 3 3 3 3 3 3 3 3 3 4 4 4 4 4 4 4 4 4 4 4 4 4 4 4 4 4 5 5 5 6 6 6 6 6 6 6 7 7 7 7 7 7 7 7 8 8 8 8 7 8 7 7 8 8 8 8 8 8 8 8 7 8 8 7 7 7 7 6 6 6 6 7 7 7 8 8 8 8 8
3 3 3 3 3 3 3 3 3 3 3 3 3 3 3 4 4 4 4 4 4 4 4 4 4 4 4 4 5 5 5 5 5 5 5 6 6 6 6 7 7 7 8 8 8 8 7 7 8 8 8 8 8 8 8 8 8 8 8 8 8 9 8 8 8 8 7 8 8 7 7 7 7 7 7 7 7 8 8 8 8 8 8 8 8
3 3 3 3 3 3 3 3 3 3 3 3 3 3 3 4 4 4 4 4 5 5 4 4 4 4 4 5 5 5 5 5 5 5 5 6 6 6 6 7 7 8 8 8 8 8 8 8 8 8 8 9 9 9 9 9 9 9 9 9 9 9 9 8 8 8 8 8 8 8 8 8 8 8 9 9 9 9 9 8 8 8 8 8 8
3 3 3 3 3 3 3 3 3 3 3 3 3 3 4 4 4 4 4 4 5 5 4 4 4 4 5 5 5 5 5 5 5 5 5 6 6 6 6 7 7 8 8 9 9 8 8 8 9 9 9 9 9 9 9 10 10 10 10 10 10 9 9 9 8 8 8 9 9 9 9 10 10 10 10 10 10 9 9 8 8 8 8 8 8
3 3 3 3 3 3 3 3 3 3 3 3 3 3 4 4 4 4 4 4 4 5 5 4 4 5 5 5 5 5 5 5 5 5 5 6 6 6 6 7 8 8 9 9 9 9 9 9 9 9 10 10 10 10 10 10 10 11 11 11 10 10 10 9 9 9 10 10 11 11 11 11 11 10 10 10 9 9 8 8 8 8 8 8 8
3 3 3 3 4 3 3 4 3 3 3 4 4 4 4 4 4 4 5 4 5 5 5 4 5 5 5 5 6 6 6 6 6 6 6 6 6 6 6 7 8 8 9 9 10 10 9 9 9 10 10 10 10 11 11 11 11 11 11 11 11 11 11 11 11 11 11 12 12 12 11 11 10 10 10 9 9 9 9 9 9 8 8 8 8
Wind_Speed
102 101 101 100 100 99 98 97 96 95 95 94 94 94 93 93 93 94 94 94 95 96 96 97 97 98 100 101 103 104 104 105 106 106 105 102 99 97 96 94 91 89 88 89 91 93 96 98 99 99 100 101 102 104 106 107 109 112 113 112 111 111 113 116 119 123 127 128 130 133 136 137 139 141 143 145 147 149 150 150 151 153 155 158 160
102 102 101 100 98 97 96 95 95 95 94 94 93 93 93 93 94 94 94 94 95 96 97 97 97 98 99 101 102 103 104 105 107 109 107 104 102 100 97 94 90 87 86 86 87 89 92 95 97 97 98 99 100 102 104 105 107 109 111 111 111 110 111 113 116 120 125 127 129 132 135 137 138 140 142 145 147 149 150 151 151 152 154 156 159
103 102 101 99 97 96 95 95 95 94 94 94 93 93 93 94 94 95 95 95 96 97 97 97 98 98 99 100 101 102 103 105 107 110 109 106 104 102 99 95 91 87 85 85 85 86 88 91 94 96 95 96 98 100 102 103 105 107 109 110 110 110 110 112 114 117 122 126 128 130 134 137 138 140 142 144 147 148 150 151 151 152 154 156 158
103 102 100 98 97 96 96 95 95 95 94 94 94 94 94 95 95 96 96 96 97 97 97 98 98 98 98 98 99 100 101 102 106 109 108 106 105 103 99 96 92 88 84 83 83 84 86 87 91 93 92 92 95 98 100 102 103 105 106 107 108 109 109 111 113 115 119 124 127 128 132 136 138 139 142 144 146 148 149 150 151 152 153 156 157
103 102 100 98 97 97 97 96 96 95 95 95 95 95 96 96 96 97 97 97 97 97 97 97 96 96 96 96 96 97 97 99 103 106 105 104 103 101 98 95 92 88 84 82 82 83 84 85 88 90 90 89 92 96 98 100 101 102 104 105 106 108 109 110 112 114 117 121 125 127 130 133 137 139 141 143 145 146 148 149 151 151 153 155 157
104 102 101 100 99 99 98 98 97 97 97 97 97 97 97 98 98 97 97 97 96 96 96 95 94 94 93 93 93 92 93 95 99 101 102 101 100 98 96 94 91 88 84 81 80 81 83 84 86 87 87 87 89 93 96 98 99 100 101 103 104 106 108 109 111 113 115 118 123 126 128 131 135 138 140 142 144 145 147 149 150 151 152 154 157
105 104 103 102 101 100 100 99 99 99 98 98 98 98 98 98 98 97 97 97 96 95 95 94 93 92 90 90 90 89 90 92 95 97 98 97 96 94 93 91 89 86 83 81 79 79 81 83 85 85 85 85 87 90 93 96 97 98 99 101 102 104 106 108 109 111 114 116 120 125 127 129 132 136 139 141 142 144 146 148 150 151 152 154 156
106 105 104 103 103 102 102 101 101 101 100 100 100 100 99 99 98 98 97 97 96 95 94 93 91 90 89 89 88 87 87 89 91 93 94 93 92 91 89 88 86 84 82 80 79 78 79 81 83 84 84 84 85 88 91 94 95 96 97 98 100 102 104 106 108 109 112 115 118 122 126 128 130 134 138 140 141 143 145 148 150 151 151 153 156
107 106 105 105 104 104 104 103 103 102 102 102 102 101 101 100 99 99 98 97 96 95 94 93 91 90 89 88 86 85 85 86 87 89 90 89 89 87 86 85 83 82 80 79 78 77 78 79 81 82 83 83 84 86 88 92 93 94 95 96 97 99 101 103 105 107 110 113 116 120 124 127 129 132 135 138 140 142 144 146 149 150 151 152 155
107 107 106 106 105 105 105 104 104 103 103 103 103 103 102 102 101 100 99 98 97 96 95 93 92 90 88 87 85 84 83 83 84 85 85 85 85 83 82 82 81 81 80 78 77 77 77 77 79 81 81 81 82 84 86 89 92 93 93 94 95 97 99 101 103 105 108 110 114 117 121 125 128 130 133 136 138 140 143 145 147 149 151 152 154
106 106 106 106 106 106 105 105 104 104 104 104 104 103 103 102 101 100 99 99 98 96 95 93 92 90 88 87 85 83 82 82 82 82 82 82 81 78 77 78 79 79 79 78 77 76 76 76 77 78 80 81 81 82 84 87 90 91 92 91 92 94 97 98 100 102 105 108 111 115 119 123 127 128 131 134 136 139 141 143 146 148 150 151 153
105 105 105 105 105 105 105 104 104 104 104 104 104 103 103 102 101 100 99 98 97 96 95 93 91 90 88 86 85 83 82 81 80 80 79 78 77 74 72 73 76 77 77 77 76 75 75 75 75 77 78 79 80 81 82 85 87 89 90 90 91 92 94 96 98 100 102 105 109 113 117 121 125 127 129 132 134 137 139 141 144 146 149 150 152
104 104 104 104 105 104 104 104 104 103 103 103 103 103 102 101 101 100 99 98 97 95 93 92 90 88 87 86 84 83 82 82 81 79 78 76 74 71 68 69 73 76 76 75 74 74 74 74 74 75 77 78 79 80 81 82 84 87 89 89 89 90 92 94 95 97 100 103 107 111 115 119 123 125 127 129 132 134 137 139 141 144 147 149 150
103 103 103 103 104 104 104 103 103 103 103 103 102 101 101 101 100 99 98 97 95 93 91 90 88 86 85 83 82 81 81 81 80 79 77 75 72 68 64 65 70 74 74 73 73 72 72 72 73 74 75 76 77 78 79 80 81 84 86 87 88 89 90 92 94 96 98 101 105 109 113 116 120 123 125 127 130 132 134 137 139 142 145 147 149
103 102 103 103 104 104 104 103 102 102 102 101 101 101 100 99 99 98 96 95 93 92 90 88 86 85 83 81 80 79 78 78 78 77 76 73 70 66 62 64 68 70 71 72 71 71 70 70 71 72 73 75 76 76 77 78 79 81 84 86 87 88 90 91 93 95 97 99 102 107 110 113 116 119 122 125 128 130 132 134 136 139 142 145 147
102 102 103 103 104 103 103 102 101 101 101 100 100 99 99 98 97 95 94 92 91 90 88 87 85 83 81 79 77 76 75 75 75 75 73 71 68 63 61 63 65 67 69 70 70 69 69 68 69 70 72 73 74 75 76 76 77 79 81 84 86 87 89 90 92 94 95 98 100 104 107 109 112 116 119 122 125 128 130 132 134 137 140 143 146
102 102 103 103 103 103 102 101 100 99 99 98 98 97 96 95 94 93 91 90 88 87 86 84 82 81 79 77 75 73 73 73 72 72 71 69 65 61 61 62 62 64 67 68 69 69 68 67 67 68 70 71 72 73 74 74 75 76 79 82 84 86 87 89 91 92 94 96 98 100 103 106 109 112 116 119 122 125 127 130 133 135 138 141 145
102 102 102 103 102 102 101 100 99 98 97 96 95 94 93 91 90 89 89 88 87 85 83 82 80 78 76 74 73 71 70 70 70 70 69 66 62 59 59 60 61 62 65 66 67 67 67 66 66 66 68 70 71 72 72 72 73 75 77 79 82 84 86 88 90 91 93 94 96 98 100 103 106 109 112 116 119 122 125 128 131 134 136 138 142
102 102 102 102 102 101 100 99 98 97 95 93 92 90 89 87 87 86 86 85 84 83 81 79 77 75 74 72 71 69 68 68 67 67 66 64 59 57 57 59 60 61 63 64 65 66 66 65 64 65 66 68 70 70 70 70 72 74 75 77 79 82 85 87 88 90 91 93 94 96 98 100 103 106 109 112 116 119 122 125 129 132 134 136 139
102 102 102 101 100 99 98 97 95 94 92 90 88 87 85 84 83 83 83 82 81 80 78 76 74 73 71 70 68 67 66 65 65 65 64 61 57 55 55 57 59 60 61 62 63 63 64 64 63 63 65 66 68 69 69 69 70 72 74 75 78 81 84 85 86 88 89 91 92 95 97 99 101 103 106 109 112 115 118 122 126 129 131 134 137
102 102 101 100 99 97 96 94 92 91 89 87 85 84 83 82 80 80 79 79 78 77 75 73 72 70 69 67 66 65 64 63 63 63 62 59 56 53 54 56 58 59 60 60 61 62 63 63 63 63 63 64 66 67 67 67 68 70 72 74 76 79 81 83 84 86 87 89 91 93 96 98 100 102 104 107 110 112 115 118 122 125 128 131 134
102 101 99 98 96 95 93 92 90 88 86 85 84 82 81 79 78 76 76 75 74 74 72 71 69 68 67 65 64 63 62 61 61 61 60 57 55 52 53 55 57 58 59 60 60 61 61 61 61 61 60 61 63 64 65 65 65 68 70 73 75 77 79 80 82 83 85 87 89 91 94 97 99 101 103 105 107 109 111 114 117 121 124 127 131
99 98 97 95 94 93 91 89 88 86 85 83 82 80 78 77 75 74 72 71 71 70 69 68 67 66 65 63 62 60 59 59 58 58 57 56 54 52 52 54 56 57 58 59 59 59 59 59 59 58 59 60 61 62 62 63 64 67 70 72 73 74 76 78 80 81 83 85 88 90 93 95 98 99 101 102 103 105 107 110 113 116 119 123 127
97 95 94 93 92 90 89 87 86 84 83 81 79 77 76 74 73 71 70 69 68 67 66 65 64 63 62 61 60 58 57 56 56 56 55 55 53 51 51 53 55 55 57 58 58 58 57 57 56 56 57 59 59 60 60 62 64 66 68 70 71 72 73 76 78 80 82 83 85 88 90 92 94 96 97 98 99 101 103 107 110 112 116 119 123
94 93 92 90 89 88 86 85 83 82 80 78 76 74 72 71 70 69 67 66 65 64 63 63 62 61 60 59 58 56 55 54 53 53 54 53 52 50 50 52 54 54 55 56 57 56 55 55 55 55 56 57 58 58 59 61 63 65 66 67 68 69 71 73 76 77 79 81 83 85 87 89 91 92 94 96 98 99 102 104 107 110 112 115 119
92 91 90 88 87 85 84 82 81 79 78 75 73 71 69 68 67 66 65 64 63 62 60 60 60 59 58 57 56 55 53 52 51 51 52 52 50 48 48 50 52 53 54 55 55 54 54 53 53 53 54 55 56 57 58 59 60 62 63 64 65 67 68 70 73 75 77 79 80 82 85 86 88 90 92 94 96 98 100 101 104 107 109 112 115
90 89 88 86 85 83 81 79 77 76 74 72 70 68 66 65 64 64 63 63 61 60 58 58 58 58 57 55 54 53 51 49 49 50 50 50 49 47 47 49 51 52 53 54 53 53 52 52 52 52 52 53 54 55 56 57 58 59 60 62 63 65 67 69 71 73 76 78 79 81 83 85 86 88 90 93 94 96 97 99 102 104 106 109 111
89 87 85 84 82 80 78 76 74 73 71 70 68 66 64 63 63 62 62 61 60 59 57 57 56 56 56 54 52 51 49 48 48 48 48 48 48 47 47 47 49 51 52 52 52 52 52 51 50 50 50 51 52 53 55 56 57 58 59 60 62 64 66 67 70 73 75 77 79 80 81 83 84 86 87 89 92 94 95 97 100 102 104 106 108
86 84 82 81 79 77 75 74 72 70 69 68 66 65 64 63 63 62 60 60 59 58 57 56 55 55 55 53 51 49 47 46 46 47 47 47 47 46 46 46 47 49 50 51 51 51 51 50 49 48 48 49 50 51 53 55 56 57 58 59 60 62 64 66 69 72 74 75 77 78 79 80 81 82 84 86 89 91 93 95 97 99 101 103 105
83 81 79 78 76 74 73 72 71 69 68 67 66 65 63 62 62 61 60 58 57 57 56 55 54 53 53 52 50 48 46 45 45 46 45 45 45 45 45 44 46 47 48 50 51 51 50 48 47 46 46 47 48 50 51 53 55 56 56 57 58 60 62 65 67 69 71 73 74 75 76 77 78 80 82 84 86 88 91 93 95 97 98 100 102
79 78 77 75 74 73 72 72 71 70 68 67 66 64 62 60 59 59 59 58 56 55 54 54 53 53 52 50 49 47 45 43 43 44 44 44 44 44 44 44 45 46 47 49 50 49 48 46 45 45 45 45 47 48 50 52 54 54 54 55 57 59 61 63 66 67 69 71 73 74 75 76 77 78 79 81 83 85 87 90 92 94 96 97 99
76 75 75 74 73 73 72 72 71 69 68 66 64 62 61 59 57 56 56 57 55 54 53 52 52 51 50 48 47 46 45 43 42 42 43 43 43 43 44 44 44 44 46 47 48 47 46 45 44 43 44 45 46 47 49 51 51 52 53 54 56 59 61 62 64 65 67 69 71 72 73 74 75 76 77 78 80 82 84 87 89 91 93 95 96
75 75 74 73 73 72 71 70 69 68 66 65 63 61 59 58 56 54 53 54 54 53 52 51 50 49 49 47 45 44 43 42 41 41 42 43 42 42 42 43 43 43 44 45 46 45 45 44 43 43 43 44 45 46 48 49 49 51 52 54 55 57 59 60 61 62 64 66 67 69 70 71 72 74 74 75 77 78 80 83 85 87 90 92 94
75 74 73 72 71 70 69 68 67 65 64 62 61 59 57 56 55 54 52 52 52 51 51 50 49 48 47 46 44 42 41 41 40 40 40 41 42 41 41 42 42 43 43 44 43 43 43 43 42 41 42 42 43 45 46 47 49 50 52 53 54 55 56 58 59 60 61 63 65 66 68 69 70 71 72 72 74 75 77 78 81 83 86 89 91
73 72 71 69 68 67 66 65 64 64 62 60 59 58 56 55 54 53 52 50 49 49 49 49 48 47 45 44 43 41 40 39 39 39 39 40 41 41 41 40 41 42 43 42 42 42 42 41 40 40 41 41 42 44 46 47 48 49 50 51 52 53 54 56 57 58 60 62 63 65 66 67 68 69 69 70 72 73 74 75 77 80 83 85 87
71 70 69 67 66 65 64 63 62 62 61 59 58 56 55 54 53 52 51 50 48 47 47 47 47 46 44 42 41 40 39 38 37 37 38 39 40 41 41 40 40 41 41 41 40 40 40 39 39 39 40 41 42 44 45 46 47 47 48 49 50 51 53 54 56 57 59 60 61 62 63 64 66 67 68 69 70 70 71 72 74 77 79 81 84
69 68 67 66 65 63 62 61 60 60 59 58 57 55 54 53 52 51 50 49 48 46 45 45 45 45 44 41 39 38 38 37 36 36 37 38 39 40 40 40 39 40 40 39 38 38 38 38 38 38 39 41 43 44 44 44 44 45 46 47 49 50 52 53 54 56 57 57 58 59 61 62 63 65 66 67 67 68 69 70 72 74 76 78 81
67 66 66 65 63 62 61 59 58 58 57 57 56 55 53 52 50 49 48 47 46 45 44 44 43 43 42 41 39 37 36 36 36 35 35 37 39 40 40 39 39 38 38 38 37 36 36 37 37 38 40 41 42 42 42 42 43 44 45 46 48 49 51 52 53 53 54 55 56 57 58 60 61 62 63 63 64 66 67 68 69 71 73 76 78
66 64 63 63 62 61 60 59 57 56 56 55 54 53 52 51 49 48 47 46 45 44 43 42 41 41 41 40 39 36 35 34 35 35 35 36 38 39 39 39 38 37 37 36 35 35 35 36 37 38 40 40 40 41 41 42 42 42 43 45 46 48 49 50 51 51 52 53 54 55 56 57 58 59 60 60 61 63 64 65 67 69 71 73 75
65 63 62 61 60 59 58 57 56 55 54 53 52 51 51 50 48 47 45 43 43 42 42 41 40 39 39 38 38 36 34 33 33 34 35 35 36 38 39 38 37 36 35 34 34 34 35 35 37 38 38 38 39 39 40 40 41 41 42 43 45 46 47 48 49 49 50 51 52 53 54 54 55 56 56 57 59 60 61 63 64 66 68 70 72
64 63 61 59 58 57 56 55 54 53 53 52 51 50 49 48 47 46 44 42 41 41 40 39 39 38 38 37 36 35 34 33 32 33 34 35 36 37 37 37 36 35 33 32 32 33 34 35 36 37 37 37 37 38 39 39 39 40 41 42 43 45 45 46 47 48 48 49 50 51 51 52 52 53 54 55 57 58 59 60 61 63 65 67 69
63 62 60 58 57 56 55 54 53 52 51 50 49 48 47 46 45 44 43 42 41 40 39 38 37 37 37 36 35 34 33 32 31 31 33 34 35 36 36 36 35 34 32 31 31 32 34 35 36 36 35 36 36 37 37 38 38 39 40 41 41 43 44 44 45 46 46 47 48 48 49 49 50 51 52 53 55 56 57 58 59 61 62 64 66
62 60 59 57 55 54 53 52 51 50 49 49 48 46 45 44 43 42 41 40 40 39 38 36 35 35 35 34 33 33 33 32 31 31 31 33 34 35 35 34 33 32 31 30 30 31 33 34 35 34 34 34 35 36 36 37 38 38 39 40 40 41 42 42 43 43 44 45 45 46 47 48 49 49 50 51 53 54 55 56 57 58 59 61 62
59 58 57 55 54 52 51 50 49 48 47 46 45 44 43 42 41 40 39 37 37 37 37 35 34 33 33 32 32 31 31 31 31 30 30 32 33 34 34 33 32 31 30 29 29 31 32 33 33 33 32 33 34 35 35 36 37 37 38 38 39 39 39 40 41 41 42 43 44 45 45 46 47 48 49 50 51 52 52 53 54 55 56 58 59
57 56 55 54 52 51 50 48 48 47 46 45 43 42 41 40 39 37 36 35 34 35 35 34 32 31 31 31 30 30 30 30 30 29 29 30 32 33 33 31 30 29 28 28 29 30 31 32 32 31 31 32 33 34 34 35 35 36 36 37 37 37 37 38 40 41 41 42 42 43 44 45 45 46 47 47 48 49 50 50 51 52 54 55 57
54 53 53 52 51 50 48 47 46 45 44 43 42 41 39 38 37 35 34 33 32 32 33 32 30 29 29 29 28 28 28 29 29 28 28 29 31 31 31 30 29 28 27 28 29 29 30 30 30 30 31 31 32 32 33 33 34 34 35 35 35 36 36 37 38 39 40 40 40 41 42 42 43 44 44 45 46 47 47 48 49 50 52 53 55
53 51 50 50 49 48 47 46 45 44 43 42 40 39 38 37 35 33 32 31 31 31 31 30 28 28 27 27 27 26 27 27 27 27 27 28 29 29 29 28 28 27 27 27 28 28 29 29 29 30 30 30 30 31 31 32 32 33 33 34 34 35 35 35 36 37 38 38 38 38 39 40 40 41 42 43 44 45 46 46 47 48 49 51 52
51 49 48 48 47 47 46 45 44 43 41 40 39 37 36 35 33 31 30 29 29 29 29 28 27 26 26 25 25 25 25 25 25 25 26 27 28 28 27 27 26 26 26 26 27 27 28 28 28 29 29 29 29 29 29 30 31 32 32 32 33 33 33 34 34 35 36 36 36 36 37 37 38 39 40 41 41 42 43 44 45 45 46 48 49
48 47 46 46 45 45 44 43 42 41 40 39 37 36 34 33 31 29 28 27 27 28 27 26 25 24 24 24 24 24 24 24 24 24 25 26 26 26 25 25 25 26 26 25 26 26 27 27 27 28 28 28 27 27 28 29 29 30 30 31 31 31 32 32 33 33 34 34 34 35 35 36 37 37 38 39 39 40 41 42 42 43 44 45 46
46 45 45 44 43 43 42 42 41 40 38 37 36 35 33 31 29 27 27 26 26 26 26 25 23 22 22 22 22 22 22 22 22 22 23 24 25 24 24 24 24 25 25 25 25 25 26 26 26 27 26 26 26 26 26 27 28 29 29 29 29 29 29 30 31 32 32 32 32 33 34 34 35 36 36 36 37 37 38 39 40 41 41 42 42
44 44 43 42 42 41 41 40 39 38 36 35 34 33 31 30 27 26 25 26 25 25 24 23 21 20 20 21 21 21 21 21 21 21 22 23 23 23 22 22 23 24 24 24 24 24 25 25 25 25 25 24 24 24 25 26 27 27 28 27 27 27 28 28 29 30 30 30 30 31 32 32 33 33 33 34 34 35 35 36 37 38 38 38 39
Wind_Direction
299 299 299 299 298 298 297 297 296 295 295 294 293 293 292 291 290 289 289 288 287 286 286 285 285 284 284 284 283 283 283 283 282 282 280 279 277 276 274 272 270 267 265 263 262 260 259 258 257 255 253 252 250 249 249 247 246 246 245 244 241 239 237 235 235 235 234 232 231 231 231 229 229 228 227 227 226 225 224 223 222 221 221 222 223
299 299 299 298 298 297 297 296 296 295 295 294 293 292 291 290 289 289 288 287 286 286 285 285 284 284 283 283 283 282 282 282 282 281 280 280 279 277 276 274 272 270 268 265 263 261 259 258 256 255 253 252 250 249 248 247 246 245 245 244 242 240 238 236 235 234 235 234 231 231 231 230 229 228 228 227 227 226 225 224 223 221 221 222 222
300 299 299 298 298 298 298 297 297 296 295 294 293 292 291 291 290 289 288 287 287 286 285 285 284 283 282 282 281 281 281 280 280 279 279 279 279 278 277 276 274 272 270 267 265 262 259 257 256 254 252 251 250 249 248 247 246 245 244 243 242 241 238 237 235 234 234 234 232 230 230 230 229 229 228 227 227 227 226 225 224 222 222 222 222
300 299 299 299 299 299 298 298 297 296 295 295 294 293 292 291 290 289 288 287 286 286 285 284 283 282 281 280 279 279 278 278 277 277 278 278 278 278 277 277 275 273 271 269 267 264 261 258 256 254 252 250 250 249 248 247 246 244 244 243 242 241 239 237 236 234 233 234 233 231 230 230 230 229 228 228 227 227 226 226 225 223 222 222 222
300 300 300 300 300 300 299 298 298 297 296 295 294 293 292 291 290 289 288 287 286 285 284 283 282 281 280 279 278 277 277 276 276 276 277 277 277 277 277 276 275 274 272 269 267 265 262 259 257 255 252 250 249 248 248 247 245 244 243 242 241 240 239 237 236 234 233 233 233 232 230 230 230 229 229 228 227 227 227 226 225 224 223 222 222
302 302 302 302 301 300 300 299 298 297 296 295 294 293 292 291 290 289 288 287 286 285 284 283 282 281 280 280 279 278 277 276 276 276 276 276 276 276 276 276 275 274 272 269 267 265 263 260 257 255 253 250 248 247 247 246 245 244 243 242 241 239 238 237 236 234 233 232 232 232 231 230 230 230 229 228 227 227 227 226 226 225 224 223 223
303 303 303 302 301 300 300 299 298 297 296 295 294 293 292 292 291 291 290 289 288 287 286 285 284 284 283 282 281 280 279 278 277 276 276 276 276 276 275 275 274 273 271 269 266 264 262 260 258 255 252 250 248 247 246 246 245 244 243 241 240 239 238 237 235 234 234 232 232 232 231 230 229 229 229 229 228 227 227 226 226 226 224 223 223
303 303 303 302 301 301 300 299 299 298 297 296 295 295 294 293 293 292 292 291 290 290 289 288 287 286 285 284 283 282 280 279 277 276 276 276 276 275 275 274 274 272 271 269 266 264 261 260 258 255 253 250 248 246 246 245 245 243 242 241 240 239 238 236 235 234 233 233 232 232 232 230 229 229 229 229 228 227 226 226 226 226 225 224 223
303 303 302 302 301 301 300 300 299 299 298 297 297 296 296 296 295 295 294 293 293 292 291 290 289 288 287 285 284 282 281 279 277 276 276 276 275 275 275 274 273 272 270 268 266 263 261 259 258 256 253 250 247 246 245 245 244 243 242 241 240 239 238 236 235 234 233 233 232 231 232 231 230 229 229 229 228 227 227 226 226 226 226 225 224
303 302 302 301 301 300 300 300 299 299 299 298 298 298 298 298 297 297 296 295 294 293 293 292 291 290 288 287 285 283 281 279 278 277 276 275 275 275 274 274 273 272 270 268 266 263 261 259 257 256 254 251 248 245 244 244 244 243 242 240 239 239 237 236 235 234 233 232 232 231 231 231 230 229 229 229 228 228 227 226 226 226 226 225 225
301 301 301 301 300 300 300 300 299 299 299 299 299 299 299 298 297 297 296 295 295 294 293 293 292 291 290 288 287 285 283 281 279 278 277 275 275 274 273 273 272 270 269 267 265 263 261 258 257 255 254 251 249 246 244 243 243 243 242 240 239 238 237 236 235 234 233 232 232 231 231 231 231 230 229 229 229 228 227 227 226 226 226 226 225
300 300 300 300 300 299 299 299 299 299 299 299 299 299 298 298 297 297 296 296 295 294 294 293 292 292 290 289 288 287 285 284 282 280 278 277 275 274 273 272 271 269 267 266 264 262 260 258 256 255 253 251 249 247 244 243 243 243 242 241 239 238 237 236 235 234 233 232 231 231 231 230 231 230 229 229 229 228 228 227 227 226 226 226 226
300 299 299 299 299 299 299 299 299 299 299 299 299 298 298 298 298 297 296 295 294 294 293 292 292 291 290 290 289 288 286 285 283 281 280 278 276 275 273 271 269 268 266 264 263 261 260 258 256 254 253 252 250 248 246 243 242 242 242 241 239 238 237 236 235 234 232 231 231 231 230 230 230 230 230 229 229 229 228 228 227 227 226 226 226
299 299 299 298 298 299 299 299 299 299 299 299 298 298 298 298 297 296 295 295 294 293 293 292 291 290 289 289 288 287 286 284 283 282 280 279 277 276 273 270 268 267 266 264 263 261 259 258 256 255 253 252 251 249 247 244 242 242 242 241 240 238 237 236 235 234 232 231 231 231 230 230 230 230 230 229 229 229 229 228 228 227 227 226 226
299 299 299 299 299 299 299 299 299 299 299 299 299 298 298 297 296 295 295 294 294 293 292 292 291 290 289 288 287 286 284 283 282 281 280 279 278 276 274 270 267 266 266 264 262 261 259 257 256 255 253 252 250 249 247 245 243 241 241 240 240 238 237 236 235 234 233 231 230 230 230 230 230 230 230 230 229 229 229 229 228 228 227 227 227
299 299 299 299 299 299 299 299 299 299 299 299 298 298 297 296 296 295 294 294 293 293 292 292 291 290 289 288 287 285 284 282 281 280 280 279 278 277 274 270 268 266 265 264 262 260 258 257 255 254 253 251 250 249 247 245 243 241 240 240 239 238 237 236 235 234 233 232 231 230 230 230 230 230 230 230 229 229 229 229 229 228 228 227 227
299 299 299 299 299 299 299 300 300 299 299 298 298 297 296 296 295 295 294 294 293 292 292 291 291 290 289 288 286 285 283 282 281 280 279 278 278 276 273 270 267 265 264 263 262 260 258 256 254 253 252 251 250 248 247 246 244 242 240 240 239 238 237 236 235 234 233 233 232 231 230 230 230 230 230 230 230 229 229 229 229 229 228 228 228
300 300 300 300 300 300 300 300 300 299 298 298 297 296 296 296 295 295 294 294 293 292 292 291 290 289 288 287 286 285 283 282 281 280 279 278 277 275 272 269 267 264 263 262 261 260 259 256 254 252 251 250 249 248 247 245 244 242 240 239 239 238 238 237 236 234 233 233 232 232 231 230 230 230 230 230 230 230 229 229 229 229 229 228 228
301 301 301 301 301 301 300 300 299 299 298 297 297 296 296 296 295 295 294 293 293 292 291 291 290 289 288 287 286 285 283 282 281 280 279 278 277 274 272 269 266 264 262 262 261 260 259 257 255 252 251 250 249 248 246 244 243 242 240 239 238 238 237 237 236 235 234 233 233 232 232 231 230 230 230 230 230 230 230 229 230 230 229 229 229
302 302 301 301 301 300 300 299 299 298 298 297 297 296 296 296 295 294 294 293 292 292 291 290 290 289 288 287 286 285 284 283 281 280 279 278 276 274 271 269 266 264 262 261 260 260 258 257 255 252 250 249 248 247 246 244 242 242 241 239 238 237 237 236 236 235 234 233 232 232 232 232 231 230 230 230 230 230 230 230 230 230 230 230 230
302 302 302 301 301 300 300 299 299 298 298 298 297 297 296 296 295 294 293 293 292 291 291 290 289 289 288 287 286 285 284 283 281 280 279 278 276 273 270 268 266 264 263 261 259 258 257 256 254 252 250 249 248 248 247 245 243 242 241 240 238 237 237 236 235 235 234 233 232 232 232 232 232 231 230 230 230 230 230 230 230 230 230 230 230
303 302 302 302 301 301 300 300 300 299 299 298 298 297 297 296 295 294 293 292 292 291 291 290 290 289 288 287 286 285 283 282 281 280 279 278 276 273 270 267 265 264 263 261 259 258 257 256 255 254 252 250 249 248 247 245 244 242 241 240 239 238 237 236 235 235 234 234 233 232 232 232 232 232 231 230 230 230 230 230 230 231 231 231 231
303 302 302 302 302 301 301 301 301 300 299 299 298 298 297 296 295 294 293 292 292 291 291 290 290 289 288 287 286 285 283 282 280 280 278 277 275 272 269 267 264 263 262 261 260 259 257 256 255 254 252 250 249 247 246 244 243 242 241 240 239 238 237 236 235 235 234 233 233 232 232 232 232 232 232 232 231 231 231 231 231 231 231 231 232
303 303 303 303 302 302 302 301 301 300 299 299 298 298 297 296 295 294 294 293 292 292 291 291 290 289 288 287 286 284 283 282 281 279 278 276 274 271 268 266 264 263 262 261 260 259 258 256 255 253 252 250 249 247 245 243 242 241 240 240 239 238 237 236 235 234 234 233 233 233 233 232 232 232 232 233 232 232 231 231 231 231 231 231 232
304 304 303 303 302 302 302 301 301 300 299 299 298 298 297 297 296 295 294 293 293 292 292 291 291 289 288 287 286 285 284 282 281 279 277 275 273 270 267 266 264 263 261 260 260 259 258 256 254 253 251 250 249 247 245 243 242 241 240 240 239 238 237 236 235 235 234 234 233 233 233 233 233 232 232 232 232 232 231 231 231 231 231 231 231
304 304 303 303 303 302 302 301 301 300 299 299 298 298 297 297 296 295 295 294 293 293 292 292 291 289 288 287 286 285 284 283 281 278 276 274 272 270 267 265 264 263 261 260 260 259 258 256 255 253 251 250 249 248 246 244 242 241 241 240 240 239 238 237 236 235 234 234 233 233 233 233 233 232 232 232 232 232 232 231 231 231 231 231 231
305 304 304 303 303 302 302 301 301 300 299 299 298 298 298 297 297 296 295 294 294 293 293 292 290 289 288 287 286 286 284 282 280 278 276 274 272 269 266 264 263 262 262 261 260 259 257 256 254 252 251 250 249 248 247 245 243 242 241 240 239 238 238 237 236 235 234 233 233 232 232 232 232 232 232 232 232 231 231 231 232 231 231 231 232
305 304 304 303 303 302 302 301 301 300 300 299 299 299 299 298 297 296 295 295 294 293 292 291 290 289 288 287 286 285 284 282 280 277 275 274 272 269 266 264 263 262 262 261 260 259 257 255 254 252 251 249 248 247 246 245 244 242 240 238 237 237 236 236 235 234 234 233 232 232 232 231 232 232 232 232 232 232 231 231 232 232 232 231 231
304 304 304 303 303 303 302 301 301 301 301 300 300 300 300 299 298 296 296 295 294 293 292 291 290 289 288 287 286 285 283 282 279 277 275 273 272 269 266 264 263 262 261 260 259 258 257 255 254 252 250 249 247 247 246 245 243 242 240 238 237 236 236 235 235 234 234 233 233 233 232 232 232 232 232 232 232 232 232 232 232 232 232 232 232
304 304 304 303 303 303 303 302 302 302 302 301 301 300 299 298 298 297 296 295 294 293 292 291 289 288 287 286 286 284 283 281 279 277 275 273 271 269 267 264 262 261 260 259 259 258 257 256 255 253 251 248 247 246 245 244 243 242 241 240 238 237 236 235 235 235 234 234 234 233 233 233 232 232 232 232 232 232 232 232 232 232 232 232 232
304 304 304 304 304 304 304 304 303 303 303 302 301 300 299 298 297 297 296 295 294 292 291 290 289 287 286 286 285 284 282 280 278 277 275 273 270 269 266 264 262 260 259 259 259 259 258 257 255 253 251 248 246 245 244 244 243 242 241 239 238 237 236 235 235 234 234 233 233 233 233 233 232 232 232 232 232 232 232 232 233 233 233 233 232
305 305 305 305 305 305 305 304 304 303 302 301 301 300 299 299 298 297 296 295 294 293 291 290 288 287 286 285 284 283 282 280 277 275 274 272 269 267 266 264 262 260 259 259 259 259 258 256 254 252 250 247 245 244 243 243 242 241 240 238 237 237 236 235 235 234 233 233 233 233 233 233 233 233 233 232 232 232 233 233 233 233 233 233 233
307 306 306 306 306 305 305 304 303 302 302 301 301 300 300 299 298 297 295 294 293 292 291 289 288 287 286 285 283 282 281 279 276 274 272 271 269 267 265 264 262 260 259 258 258 258 257 255 253 251 249 247 245 244 243 242 241 240 239 238 237 237 237 236 236 235 234 234 234 234 234 234 234 234 234 234 233 233 233 233 234 234 234 234 234
307 307 306 306 305 305 304 303 303 302 302 301 301 300 300 299 298 297 295 294 293 292 290 289 288 286 286 284 283 281 280 278 276 273 271 270 269 267 265 263 262 260 259 258 258 257 256 255 253 251 249 247 245 244 243 241 240 239 239 238 237 237 237 237 236 235 235 234 234 234 234 234 234 234 234 235 235 234 234 234 234 234 234 234 234
307 307 306 306 305 304 304 303 303 302 301 301 301 300 299 298 297 296 295 293 292 291 290 289 288 286 285 284 283 281 279 277 275 273 271 269 268 267 265 263 261 260 259 258 257 256 256 255 253 251 249 247 245 243 242 240 239 239 239 238 238 237 237 236 236 235 234 233 233 233 233 234 234 234 234 235 235 235 234 234 234 234 234 234 234
307 307 306 306 305 305 304 303 302 302 301 301 300 300 299 298 297 295 294 293 292 290 289 288 287 286 285 283 282 280 279 276 274 272 271 269 267 266 265 263 261 260 260 258 257 256 255 254 252 250 248 246 244 243 241 240 240 239 238 238 238 237 237 236 235 235 234 234 233 234 234 234 234 234 234 234 234 234 234 234 234 234 234 234 234
307 307 306 306 305 305 304 303 303 302 302 301 300 299 298 297 296 295 294 293 291 290 288 287 286 285 284 283 281 279 278 276 274 271 270 268 267 266 264 263 261 260 259 258 257 255 254 253 251 249 247 246 244 243 242 241 240 238 238 237 237 236 236 236 235 235 235 235 234 234 234 234 234 234 234 234 234 234 234 234 233 234 234 234 234
308 307 307 306 306 305 304 304 303 302 302 301 300 299 298 297 296 295 294 292 291 290 288 287 285 284 284 283 281 279 277 275 274 271 269 267 266 265 264 263 261 260 259 258 257 255 253 251 250 248 246 245 244 244 242 241 239 238 237 237 237 236 236 236 235 235 235 235 234 234 234 234 234 235 235 235 235 235 234 233 233 233 234 234 234
308 308 307 306 306 305 305 304 303 302 301 300 300 299 298 297 296 294 293 292 291 289 288 287 285 284 283 282 281 279 276 274 273 271 268 266 264 264 263 262 261 260 258 257 256 254 252 250 248 247 246 245 244 244 243 241 240 238 237 236 236 237 236 236 236 235 235 235 234 234 234 234 234 234 235 235 235 234 234 233 233 233 233 234 234
308 308 307 307 306 305 305 304 303 302 301 300 299 298 297 297 296 294 293 292 290 289 288 287 285 284 283 282 280 279 276 273 271 269 267 265 263 262 262 262 260 259 258 256 254 252 251 249 248 247 246 245 244 243 243 242 240 238 237 236 236 236 236 236 236 235 235 235 235 235 235 234 234 234 234 234 234 234 234 233 233 233 233 233 234
309 308 308 308 307 306 305 304 303 302 301 300 299 298 297 297 296 295 294 292 291 289 288 287 285 284 282 281 279 278 276 273 270 268 266 264 262 261 261 261 260 259 257 255 252 251 249 248 247 246 246 245 244 243 242 241 241 239 238 236 236 236 236 236 236 235 235 235 235 235 235 235 234 234 233 233 233 233 233 233 233 233 233 233 234
309 309 309 308 307 306 305 304 303 302 301 300 299 298 298 297 296 295 295 294 292 290 288 286 285 283 282 280 278 277 275 272 269 266 264 263 261 260 259 259 259 258 256 253 250 249 248 247 246 246 245 244 244 243 242 241 240 239 238 237 236 235 235 236 236 235 235 235 235 235 235 235 234 234 233 233 233 233 233 232 232 232 233 233 233
310 309 309 308 307 306 305 304 303 301 300 300 299 299 298 297 297 296 295 294 293 291 289 287 285 283 281 280 278 275 273 271 268 265 262 261 260 259 259 258 257 256 254 252 249 247 246 246 246 245 244 243 243 242 241 240 239 239 238 237 236 235 235 235 235 235 235 235 235 235 235 234 234 233 233 233 233 233 232 232 232 232 233 233 233
309 309 308 308 307 306 305 304 303 302 301 300 300 299 299 298 297 296 295 294 292 290 289 287 285 283 281 279 277 274 272 269 267 263 260 259 259 258 258 257 256 255 253 251 248 246 245 245 245 244 243 241 241 241 240 239 239 238 238 237 236 235 235 235 235 234 234 234 234 234 234 234 234 233 233 233 233 233 233 233 232 232 233 233 233
310 310 309 308 308 307 306 305 303 302 302 301 301 300 300 299 298 297 296 294 292 290 288 287 285 283 281 279 276 273 270 268 265 262 259 257 257 257 257 256 254 253 251 248 246 245 245 244 244 243 242 240 240 239 239 239 238 238 237 237 236 235 234 234 234 234 234 234 233 233 233 234 234 233 233 233 233 233 233 233 233 233 232 232 233
311 311 310 309 308 307 306 305 304 303 303 302 302 301 301 300 299 298 297 295 292 289 287 286 285 282 280 277 275 272 269 267 264 261 258 256 255 255 255 255 253 251 248 246 245 244 244 243 243 242 240 239 238 238 238 238 238 237 237 236 236 235 234 233 234 234 235 235 234 233 233 234 234 234 234 233 234 234 234 233 232 232 232 232 232
312 311 310 309 309 308 307 306 305 305 304 304 303 303 302 301 301 300 298 295 292 289 286 285 284 281 279 276 274 271 268 265 263 260 257 254 253 253 253 253 251 249 246 244 243 243 243 242 241 240 240 238 237 237 237 237 236 236 236 235 235 235 234 234 234 234 235 235 235 235 234 234 234 234 233 233 233 234 234 234 233 232 232 232 233
313 312 311 310 309 308 307 306 306 305 305 305 305 304 304 303 303 301 299 295 291 288 286 284 282 280 277 275 272 269 266 264 261 259 256 253 252 251 251 250 249 247 245 243 242 242 241 241 240 240 239 238 237 235 235 235 235 235 235 234 234 234 234 234 234 234 235 235 235 235 234 233 233 233 233 233 233 233 234 234 234 234 233 233 233
313 312 311 310 309 308 307 307 307 307 307 307 306 306 305 304 303 301 298 294 290 286 285 283 281 278 276 273 271 268 265 263 260 257 254 252 251 249 248 247 246 245 244 242 240 240 240 240 239 239 238 237 236 234 233 233 234 234 234 234 233 233 233 233 234 234 234 234 234 234 233 233 233 233 233 233 233 233 233 234 234 234 234 234 234
313 312 311 311 310 309 309 308 308 308 308 308 307 307 306 305 303 301 297 293 289 286 284 283 281 278 275 272 269 267 264 261 258 255 252 251 250 248 246 244 243 242 242 240 239 238 237 238 238 238 238 236 235 234 232 232 232 233 233 233 233 232 232 232 233 233 234 233 233 232 232 232 232 233 233 233 233 233 233 233 234 234 234 234 234
315 314 313 312 311 310 310 309 309 308 308 308 307 306 305 304 302 299 295 291 288 286 285 283 281 277 274 270 268 265 262 259 256 253 251 249 248 246 243 241 240 240 239 238 237 237 236 236 236 236 236 235 234 232 231 231 231 231 232 233 233 232 231 231 232 232 233 233 233 232 232 233 233 233 233 233 233 232 232 232 233 233 233 233 233